QPF
0.00 0.00 0.00 0.01 0.03 0.02 0.00 0.01 0.03 0.06 0.05 0.05 0.02 0.00 0.00 0.01 0.08 0.09 0.03 0.00 0.00 0.00 0.00 0.00 0.00 0.00 0.00 0.00 0.00 0.00 0.00 0.00 0.00 0.00 0.00 0.00 0.00 0.00 0.00 0.00 0.00 0.00 0.00 0.00 0.00 0.00 0.00
0.00 0.00 0.00 0.00 0.00 0.01 0.02 0.03 0.06 0.08 0.08 0.05 0.02 0.00 0.00 0.00 0.00 0.01 0.00 0.00 0.00 0.00 0.00 0.00 0.00 0.00 0.00 0.00 0.00 0.00 0.00 0.00 0.00 0.00 0.00 0.00 0.00 0.00 0.00 0.00 0.00 0.00 0.00 0.00 0.00 0.00 0.00
0.00 0.00 0.00 0.00 0.00 0.00 0.01 0.05 0.08 0.07 0.10 0.05 0.02 0.01 0.00 0.00 0.00 0.00 0.00 0.00 0.00 0.00 0.00 0.00 0.00 0.00 0.00 0.00 0.00 0.00 0.00 0.00 0.00 0.00 0.00 0.00 0.00 0.00 0.00 0.00 0.00 0.00 0.00 0.00 0.00 0.00 0.00
0.00 0.00 0.00 0.00 0.00 0.00 0.00 0.00 0.00 0.01 0.02 0.02 0.03 0.03 0.00 0.00 0.00 0.00 0.00 0.00 0.00 0.00 0.00 0.00 0.00 0.00 0.00 0.00 0.00 0.00 0.00 0.00 0.00 0.00 0.00 0.00 0.00 0.00 0.00 0.00 0.00 0.00 0.00 0.00 0.00 0.00 0.00
0.00 0.00 0.00 0.00 0.00 0.00 0.00 0.00 0.00 0.00 0.00 0.00 0.00 0.00 0.00 0.00 0.00 0.00 0.00 0.00 0.00 0.00 0.00 0.00 0.00 0.00 0.00 0.00 0.00 0.00 0.00 0.00 0.00 0.00 0.00 0.00 0.00 0.00 0.00 0.00 0.00 0.00 0.00 0.00 0.00 0.00 0.00
0.00 0.00 0.00 0.00 0.00 0.00 0.00 0.00 0.00 0.00 0.00 0.00 0.00 0.00 0.00 0.00 0.00 0.00 0.00 0.00 0.00 0.00 0.00 0.00 0.00 0.00 0.00 0.00 0.00 0.00 0.00 0.00 0.00 0.00 0.00 0.00 0.00 0.00 0.00 0.00 0.00 0.00 0.00 0.00 0.00 0.00 0.00
0.00 0.00 0.00 0.00 0.00 0.00 0.00 0.00 0.00 0.00 0.00 0.00 0.00 0.00 0.00 0.00 0.00 0.00 0.00 0.00 0.00 0.00 0.00 0.00 0.00 0.00 0.00 0.00 0.00 0.00 0.00 0.00 0.00 0.00 0.00 0.00 0.00 0.00 0.00 0.00 0.00 0.00 0.00 0.00 0.00 0.00 0.00
0.00 0.00 0.00 0.00 0.00 0.00 0.00 0.00 0.00 0.00 0.00 0.00 0.00 0.00 0.00 0.00 0.00 0.00 0.00 0.00 0.00 0.00 0.00 0.00 0.00 0.00 0.00 0.00 0.00 0.00 0.00 0.00 0.00 0.00 0.00 0.00 0.00 0.00 0.00 0.00 0.00 0.00 0.00 0.00 0.00 0.00 0.00
0.00 0.00 0.00 0.00 0.00 0.00 0.00 0.00 0.00 0.00 0.00 0.00 0.00 0.00 0.00 0.00 0.00 0.00 0.00 0.00 0.00 0.00 0.00 0.00 0.00 0.00 0.00 0.00 0.00 0.00 0.00 0.00 0.00 0.00 0.00 0.00 0.00 0.00 0.00 0.00 0.00 0.00 0.00 0.00 0.00 0.00 0.00
0.00 0.00 0.00 0.00 0.00 0.00 0.00 0.00 0.00 0.00 0.00 0.00 0.00 0.00 0.00 0.00 0.00 0.00 0.00 0.00 0.00 0.00 0.00 0.00 0.00 0.00 0.00 0.00 0.00 0.00 0.00 0.00 0.00 0.00 0.00 0.00 0.00 0.00 0.00 0.00 0.00 0.00 0.00 0.00 0.00 0.00 0.00
0.00 0.00 0.00 0.00 0.00 0.00 0.00 0.00 0.00 0.00 0.00 0.00 0.00 0.00 0.00 0.00 0.00 0.00 0.00 0.00 0.00 0.00 0.00 0.00 0.00 0.00 0.00 0.00 0.00 0.00 0.00 0.00 0.00 0.00 0.00 0.00 0.00 0.00 0.00 0.00 0.00 0.00 0.00 0.00 0.00 0.00 0.00
0.00 0.00 0.00 0.00 0.00 0.00 0.00 0.00 0.00 0.00 0.00 0.00 0.00 0.00 0.00 0.00 0.00 0.00 0.00 0.00 0.00 0.00 0.00 0.00 0.00 0.00 0.00 0.00 0.00 0.00 0.00 0.00 0.00 0.00 0.00 0.00 0.00 0.00 0.00 0.00 0.00 0.00 0.00 0.00 0.00 0.00 0.00
0.00 0.00 0.00 0.00 0.00 0.00 0.00 0.00 0.00 0.00 0.00 0.00 0.00 0.00 0.00 0.00 0.00 0.00 0.00 0.00 0.00 0.00 0.00 0.00 0.00 0.00 0.00 0.00 0.00 0.00 0.00 0.00 0.00 0.00 0.00 0.00 0.00 0.00 0.00 0.00 0.00 0.00 0.00 0.00 0.00 0.00 0.00
0.00 0.00 0.00 0.00 0.00 0.00 0.00 0.00 0.00 0.00 0.00 0.00 0.00 0.00 0.00 0.00 0.00 0.00 0.00 0.00 0.00 0.00 0.00 0.00 0.00 0.00 0.00 0.00 0.00 0.00 0.00 0.00 0.00 0.00 0.00 0.00 0.00 0.00 0.00 0.00 0.00 0.00 0.00 0.00 0.00 0.00 0.00
0.00 0.00 0.00 0.00 0.00 0.00 0.00 0.00 0.00 0.00 0.00 0.00 0.00 0.00 0.00 0.00 0.00 0.00 0.00 0.00 0.00 0.00 0.00 0.00 0.00 0.00 0.00 0.00 0.00 0.00 0.00 0.00 0.00 0.00 0.00 0.00 0.00 0.00 0.00 0.00 0.00 0.00 0.00 0.00 0.00 0.00 0.00
0.00 0.00 0.00 0.00 0.00 0.00 0.00 0.00 0.00 0.00 0.00 0.00 0.00 0.00 0.00 0.00 0.00 0.00 0.00 0.00 0.00 0.00 0.00 0.00 0.00 0.00 0.00 0.00 0.00 0.00 0.00 0.00 0.00 0.00 0.00 0.00 0.00 0.00 0.00 0.00 0.00 0.00 0.00 0.00 0.00 0.00 0.00
0.00 0.00 0.00 0.00 0.00 0.00 0.00 0.00 0.00 0.00 0.00 0.00 0.00 0.00 0.00 0.00 0.00 0.00 0.00 0.00 0.00 0.00 0.00 0.00 0.00 0.00 0.00 0.00 0.00 0.00 0.00 0.00 0.00 0.00 0.00 0.00 0.00 0.00 0.00 0.00 0.00 0.00 0.00 0.00 0.00 0.00 0.00
0.00 0.00 0.00 0.00 0.00 0.00 0.00 0.00 0.00 0.00 0.00 0.00 0.00 0.00 0.00 0.00 0.00 0.00 0.00 0.00 0.00 0.00 0.00 0.00 0.00 0.00 0.00 0.00 0.00 0.00 0.00 0.00 0.00 0.00 0.00 0.00 0.00 0.00 0.00 0.00 0.00 0.00 0.00 0.00 0.00 0.00 0.00
0.00 0.00 0.00 0.00 0.00 0.00 0.00 0.00 0.00 0.00 0.00 0.00 0.00 0.00 0.00 0.00 0.00 0.00 0.00 0.00 0.00 0.00 0.00 0.00 0.00 0.00 0.00 0.00 0.00 0.00 0.00 0.00 0.00 0.00 0.00 0.00 0.00 0.00 0.00 0.00 0.00 0.00 0.00 0.00 0.00 0.00 0.00
0.00 0.00 0.00 0.00 0.00 0.00 0.00 0.00 0.00 0.00 0.00 0.00 0.00 0.00 0.00 0.00 0.00 0.00 0.00 0.00 0.00 0.00 0.00 0.00 0.00 0.00 0.00 0.00 0.00 0.00 0.00 0.00 0.00 0.00 0.00 0.00 0.00 0.00 0.00 0.00 0.00 0.00 0.00 0.00 0.00 0.00 0.00
0.00 0.00 0.00 0.00 0.00 0.00 0.00 0.00 0.00 0.00 0.00 0.00 0.00 0.00 0.00 0.00 0.00 0.00 0.00 0.00 0.00 0.00 0.00 0.00 0.00 0.00 0.00 0.00 0.00 0.00 0.00 0.00 0.00 0.00 0.00 0.00 0.00 0.00 0.00 0.00 0.00 0.00 0.00 0.00 0.00 0.00 0.00
0.00 0.00 0.00 0.00 0.00 0.00 0.00 0.00 0.00 0.00 0.00 0.00 0.00 0.00 0.00 0.00 0.00 0.00 0.00 0.00 0.00 0.00 0.00 0.00 0.00 0.00 0.00 0.00 0.00 0.00 0.00 0.00 0.00 0.00 0.00 0.00 0.00 0.00 0.00 0.00 0.00 0.00 0.00 0.00 0.00 0.00 0.00
0.00 0.00 0.00 0.00 0.00 0.00 0.00 0.00 0.00 0.00 0.00 0.00 0.00 0.00 0.00 0.00 0.00 0.00 0.00 0.00 0.00 0.00 0.00 0.00 0.00 0.00 0.00 0.00 0.00 0.00 0.00 0.00 0.00 0.00 0.00 0.00 0.00 0.00 0.00 0.00 0.00 0.00 0.00 0.00 0.00 0.00 0.00
0.00 0.00 0.00 0.00 0.00 0.00 0.00 0.00 0.00 0.00 0.00 0.00 0.00 0.00 0.00 0.00 0.00 0.00 0.00 0.00 0.00 0.00 0.00 0.00 0.00 0.00 0.00 0.00 0.00 0.00 0.00 0.00 0.00 0.00 0.00 0.00 0.00 0.00 0.00 0.00 0.00 0.00 0.00 0.00 0.00 0.00 0.00
0.00 0.00 0.00 0.00 0.00 0.00 0.00 0.00 0.00 0.00 0.00 0.00 0.00 0.00 0.00 0.00 0.00 0.00 0.00 0.00 0.00 0.00 0.00 0.00 0.00 0.00 0.00 0.00 0.00 0.00 0.00 0.00 0.00 0.00 0.00 0.00 0.00 0.00 0.00 0.00 0.00 0.00 0.00 0.00 0.00 0.00 0.00
0.00 0.00 0.00 0.00 0.00 0.00 0.00 0.00 0.00 0.00 0.00 0.00 0.00 0.00 0.00 0.00 0.00 0.00 0.00 0.00 0.00 0.00 0.00 0.00 0.00 0.00 0.00 0.00 0.00 0.00 0.00 0.00 0.00 0.00 0.00 0.00 0.00 0.00 0.00 0.00 0.00 0.00 0.00 0.00 0.00 0.00 0.00
0.00 0.00 0.00 0.00 0.00 0.00 0.00 0.00 0.00 0.00 0.00 0.00 0.00 0.00 0.00 0.00 0.00 0.00 0.00 0.00 0.00 0.00 0.00 0.00 0.00 0.00 0.00 0.00 0.00 0.00 0.00 0.00 0.00 0.00 0.00 0.00 0.00 0.00 0.00 0.00 0.00 0.00 0.00 0.00 0.00 0.00 0.00
0.00 0.00 0.00 0.00 0.00 0.00 0.00 0.00 0.00 0.00 0.00 0.00 0.00 0.00 0.00 0.00 0.00 0.00 0.00 0.00 0.00 0.00 0.00 0.00 0.00 0.00 0.00 0.00 0.00 0.00 0.00 0.00 0.00 0.00 0.00 0.00 0.00 0.00 0.00 0.00 0.00 0.00 0.00 0.00 0.00 0.00 0.00
0.00 0.00 0.00 0.00 0.00 0.00 0.00 0.00 0.00 0.00 0.00 0.00 0.00 0.00 0.00 0.00 0.00 0.00 0.00 0.00 0.00 0.00 0.00 0.00 0.00 0.00 0.00 0.00 0.00 0.00 0.00 0.00 0.00 0.00 0.00 0.00 0.00 0.00 0.00 0.00 0.00 0.00 0.00 0.00 0.00 0.00 0.00
MSLP
1017.77 1016.99 1016.55 1016.07 1015.62 1015.24 1014.89 1014.57 1014.35 1014.14 1014.09 1013.97 1014.01 1014.11 1014.14 1014.07 1014.33 1014.88 1014.98 1015.33 1015.51 1015.63 1015.60 1015.69 1015.88 1015.94 1015.93 1016.28 1016.72 1015.84 1015.36 1014.99 1014.61 1014.51 1014.74 1014.78 1014.66 1014.75 1015.34 1015.60 1015.81 1016.26 1016.98 1017.39 1017.61 1017.62 1017.68
1018.54 1017.85 1017.21 1016.81 1016.40 1015.98 1015.55 1015.19 1015.00 1014.92 1014.75 1014.63 1014.72 1014.79 1014.80 1014.84 1014.57 1015.29 1015.43 1015.63 1015.69 1015.69 1015.68 1015.81 1015.87 1015.83 1016.13 1016.54 1016.39 1015.82 1015.51 1015.09 1014.91 1014.74 1015.18 1015.29 1015.60 1015.29 1015.92 1016.34 1016.57 1016.82 1017.06 1017.61 1017.84 1017.88 1017.93
1019.13 1018.72 1018.07 1017.56 1017.14 1016.78 1016.31 1015.96 1015.86 1015.70 1015.53 1015.12 1015.29 1015.37 1015.29 1015.26 1015.43 1016.08 1015.73 1015.81 1015.74 1015.65 1015.69 1015.80 1015.81 1015.80 1016.19 1016.90 1016.44 1015.97 1015.46 1015.35 1015.21 1014.99 1015.44 1015.65 1015.75 1015.68 1016.45 1016.88 1017.10 1017.10 1017.39 1017.69 1017.95 1018.07 1018.20
1019.73 1019.27 1019.08 1018.45 1017.87 1017.50 1017.04 1016.80 1016.71 1016.56 1016.32 1016.06 1015.82 1015.71 1015.58 1015.76 1016.04 1016.07 1015.93 1015.78 1015.74 1015.73 1015.85 1015.85 1015.63 1015.76 1016.71 1016.50 1016.35 1015.96 1015.78 1015.68 1015.43 1015.12 1015.48 1015.70 1015.90 1016.43 1017.17 1017.57 1017.64 1017.64 1017.68 1018.08 1017.96 1018.11 1018.37
1020.38 1019.80 1019.47 1019.21 1018.37 1017.91 1017.67 1017.52 1017.19 1017.05 1016.75 1016.56 1016.14 1015.85 1016.00 1016.01 1015.96 1015.89 1015.86 1015.92 1015.94 1015.97 1015.84 1015.61 1015.53 1015.71 1016.85 1016.50 1016.54 1016.41 1016.10 1016.02 1015.76 1015.62 1015.76 1015.83 1016.14 1017.51 1017.88 1018.35 1018.74 1018.44 1018.29 1018.21 1018.04 1018.23 1018.55
1020.99 1020.56 1020.12 1019.84 1019.41 1018.59 1017.81 1017.97 1017.81 1017.38 1017.14 1016.84 1016.60 1016.51 1016.34 1016.17 1016.04 1016.02 1016.14 1016.35 1016.49 1016.41 1016.07 1015.69 1015.50 1016.20 1016.86 1017.05 1016.86 1016.70 1016.24 1016.03 1015.91 1015.97 1016.28 1016.52 1017.35 1018.67 1019.31 1019.28 1019.88 1019.36 1018.84 1018.61 1018.49 1018.81 1018.79
1021.41 1021.10 1020.75 1020.28 1020.02 1019.53 1019.14 1018.58 1018.19 1017.89 1017.66 1017.45 1017.07 1016.72 1016.50 1016.44 1016.52 1016.56 1016.67 1016.72 1017.12 1017.08 1016.80 1017.04 1017.07 1017.19 1017.34 1017.19 1016.99 1016.87 1016.61 1016.32 1016.11 1016.49 1017.43 1018.03 1019.01 1020.45 1020.38 1019.81 1019.72 1019.65 1019.25 1019.26 1018.90 1019.02 1019.05
1021.86 1021.47 1021.15 1020.83 1020.38 1020.06 1019.59 1019.24 1018.75 1018.29 1018.00 1017.71 1017.52 1017.29 1017.02 1016.80 1016.83 1016.99 1017.27 1017.46 1017.73 1017.57 1017.60 1017.38 1017.45 1017.62 1017.53 1017.49 1017.34 1017.20 1016.86 1016.87 1016.87 1017.64 1018.16 1019.13 1020.31 1020.78 1020.36 1019.89 1020.03 1019.76 1019.61 1019.89 1019.91 1019.74 1020.27
1022.24 1021.90 1021.49 1021.13 1020.80 1020.45 1020.02 1019.57 1019.17 1018.75 1018.28 1017.91 1017.60 1017.30 1017.01 1017.01 1016.98 1017.21 1017.72 1018.05 1017.77 1017.38 1017.61 1018.22 1017.95 1018.09 1017.99 1017.75 1018.09 1017.98 1017.72 1017.44 1017.83 1018.61 1019.30 1019.97 1021.02 1020.78 1020.41 1019.93 1020.35 1020.37 1020.63 1021.04 1021.39 1020.93 1020.67
1022.73 1022.30 1021.93 1021.54 1021.08 1020.68 1020.25 1019.77 1019.36 1018.89 1018.51 1018.13 1017.83 1017.47 1017.20 1017.19 1017.48 1017.57 1018.12 1017.97 1017.68 1017.55 1018.53 1019.18 1018.37 1018.15 1017.96 1017.93 1018.45 1018.25 1018.12 1018.11 1018.43 1019.48 1020.07 1020.75 1020.97 1020.66 1020.57 1020.87 1021.02 1020.93 1021.38 1021.83 1022.06 1022.74 1022.33
1023.18 1022.76 1022.35 1021.95 1021.55 1021.06 1020.60 1020.06 1019.47 1019.08 1018.69 1018.30 1017.96 1017.59 1017.36 1017.41 1017.53 1017.89 1018.35 1017.97 1017.82 1018.09 1019.35 1019.75 1018.64 1017.95 1017.86 1018.27 1018.56 1018.35 1018.09 1017.93 1018.87 1019.70 1020.42 1021.43 1021.30 1021.25 1021.30 1021.23 1021.04 1021.53 1022.06 1022.30 1023.00 1023.61 1023.62
1023.55 1023.18 1022.81 1022.36 1021.88 1021.38 1020.86 1020.30 1019.79 1019.31 1018.90 1018.54 1018.10 1017.61 1017.15 1017.41 1017.92 1018.36 1018.15 1018.08 1018.33 1019.06 1020.51 1019.91 1018.98 1018.48 1018.46 1018.34 1018.36 1018.29 1018.31 1018.46 1019.17 1019.98 1020.89 1021.56 1021.53 1021.55 1021.35 1021.24 1021.47 1021.81 1022.34 1023.22 1024.02 1024.41 1024.41
1023.93 1023.59 1023.18 1022.71 1022.17 1021.62 1021.07 1020.47 1019.93 1019.43 1019.01 1018.66 1018.34 1017.95 1017.55 1017.81 1018.46 1018.27 1018.27 1018.67 1019.67 1020.14 1021.00 1020.28 1019.37 1018.71 1018.53 1018.62 1018.57 1018.57 1018.82 1019.29 1019.89 1021.19 1021.85 1021.78 1021.77 1021.59 1021.43 1021.49 1021.68 1022.33 1023.60 1024.54 1025.24 1025.03 1024.95
1024.18 1023.84 1023.45 1022.94 1022.37 1021.74 1021.10 1020.65 1020.11 1019.53 1019.11 1018.77 1018.49 1018.33 1018.25 1018.32 1018.35 1018.30 1018.51 1019.19 1020.44 1020.95 1020.57 1020.06 1019.49 1019.01 1018.89 1018.90 1018.88 1018.89 1019.32 1020.05 1020.35 1020.73 1021.77 1022.08 1022.10 1021.90 1021.72 1021.88 1022.31 1022.85 1023.80 1024.88 1025.71 1025.80 1025.06
1024.51 1024.09 1023.65 1023.13 1022.57 1021.98 1021.26 1020.59 1020.02 1019.62 1019.18 1018.80 1018.47 1018.43 1018.49 1018.60 1018.28 1018.35 1018.89 1020.45 1021.34 1021.05 1020.34 1020.00 1019.63 1019.31 1019.20 1019.10 1019.10 1019.19 1019.48 1020.10 1020.57 1020.87 1021.65 1022.02 1022.20 1022.11 1022.04 1022.15 1022.60 1022.98 1023.65 1024.25 1025.22 1025.34 1024.98
1024.79 1024.36 1023.84 1023.34 1022.81 1022.23 1021.57 1020.75 1020.04 1019.49 1019.16 1018.82 1019.01 1018.95 1018.94 1018.50 1018.39 1018.74 1019.84 1021.35 1021.46 1020.97 1020.47 1019.88 1019.75 1019.42 1019.39 1019.35 1019.48 1019.59 1019.99 1020.53 1020.92 1021.19 1021.44 1021.84 1022.27 1022.35 1022.47 1022.45 1022.76 1023.06 1023.67 1024.33 1024.97 1025.27 1024.76
1024.97 1024.55 1024.15 1023.67 1023.06 1022.37 1021.69 1021.07 1020.18 1019.32 1018.85 1018.75 1019.03 1019.42 1018.85 1018.47 1018.61 1019.24 1021.07 1021.51 1021.31 1020.89 1020.50 1020.19 1019.91 1019.61 1019.52 1019.52 1019.65 1019.82 1020.35 1020.91 1020.85 1021.27 1021.45 1021.78 1022.43 1023.08 1022.96 1022.89 1022.79 1023.44 1023.50 1023.86 1024.38 1024.64 1024.56
1025.19 1024.79 1024.31 1023.84 1023.36 1022.74 1022.06 1021.32 1020.48 1019.68 1018.54 1018.62 1019.40 1019.80 1018.83 1018.61 1019.49 1020.56 1021.53 1021.25 1021.03 1020.84 1020.45 1020.20 1020.03 1019.92 1019.90 1019.80 1019.91 1020.14 1020.59 1020.90 1020.99 1021.26 1021.75 1022.30 1022.92 1023.45 1023.21 1022.77 1022.56 1022.64 1022.87 1023.27 1024.29 1024.33 1024.09
1025.38 1025.05 1024.70 1024.26 1023.75 1023.18 1022.51 1021.64 1020.92 1020.10 1019.51 1019.60 1020.33 1020.05 1019.07 1019.10 1020.55 1021.68 1021.48 1021.29 1021.07 1020.78 1020.66 1020.41 1020.33 1020.29 1020.11 1020.21 1020.50 1020.52 1020.86 1021.26 1021.26 1021.64 1022.15 1022.59 1023.34 1023.70 1023.51 1023.43 1022.95 1022.79 1022.70 1022.90 1023.53 1023.92 1023.76
1025.46 1025.13 1024.83 1024.47 1024.01 1023.50 1022.83 1022.05 1021.11 1020.28 1019.73 1019.59 1020.25 1021.04 1020.48 1020.34 1021.29 1021.30 1021.28 1021.21 1021.20 1020.96 1020.80 1020.61 1020.58 1020.47 1020.47 1020.54 1020.67 1020.96 1021.24 1021.59 1021.72 1022.02 1022.30 1022.71 1023.46 1023.87 1023.77 1023.18 1022.88 1022.97 1022.55 1022.55 1023.11 1023.72 1022.90
1025.46 1025.20 1024.98 1024.79 1024.30 1023.75 1023.23 1022.61 1021.64 1020.50 1019.51 1019.77 1020.90 1022.53 1022.48 1022.43 1021.88 1021.69 1021.15 1020.98 1021.04 1021.04 1020.93 1020.82 1020.77 1020.66 1020.71 1020.79 1020.88 1021.11 1021.27 1021.80 1022.13 1022.41 1022.70 1023.26 1023.83 1023.75 1023.43 1022.96 1022.67 1022.12 1021.75 1021.84 1022.13 1021.59 1021.70
1025.41 1025.14 1024.89 1024.66 1024.52 1024.07 1023.48 1023.08 1022.41 1021.33 1019.99 1020.75 1022.16 1022.48 1022.50 1022.51 1021.98 1021.71 1021.57 1021.26 1020.88 1020.81 1020.82 1020.87 1020.87 1020.67 1020.70 1020.86 1021.00 1021.13 1021.31 1021.69 1022.08 1022.82 1023.06 1023.45 1023.88 1023.92 1023.40 1022.42 1022.10 1021.46 1020.43 1020.55 1020.61 1020.48 1020.11
1025.10 1025.15 1024.97 1024.80 1024.56 1024.23 1023.88 1023.52 1023.09 1022.26 1021.39 1022.22 1022.67 1022.62 1022.43 1022.44 1022.06 1021.97 1022.11 1021.57 1021.32 1021.08 1020.90 1020.72 1020.78 1020.82 1020.88 1020.94 1021.08 1021.15 1021.34 1021.71 1022.08 1022.62 1023.30 1023.78 1024.26 1024.52 1023.78 1022.66 1021.80 1020.32 1018.51 1018.65 1018.81 1018.40 1018.37
1024.86 1024.76 1024.80 1024.68 1024.68 1024.38 1024.03 1023.73 1023.56 1023.32 1023.00 1023.36 1023.61 1023.56 1023.23 1022.80 1021.97 1021.86 1021.73 1021.74 1021.59 1021.46 1021.49 1021.28 1021.22 1021.34 1021.39 1021.17 1021.10 1021.06 1021.34 1021.60 1021.92 1022.36 1022.74 1023.45 1024.13 1024.52 1024.10 1023.07 1021.35 1018.03 1017.29 1017.28 1017.50 1017.16 1017.10
1024.36 1024.30 1024.39 1024.44 1024.40 1024.43 1024.25 1023.95 1023.79 1023.50 1023.49 1023.49 1023.59 1023.94 1023.76 1023.13 1022.35 1021.61 1021.27 1021.35 1021.43 1021.43 1021.65 1021.63 1021.76 1022.01 1021.83 1021.78 1021.77 1021.67 1021.68 1021.81 1021.95 1022.47 1022.74 1022.99 1023.73 1024.37 1024.16 1023.30 1020.79 1017.25 1016.91 1016.81 1016.84 1016.39 1016.01
1024.06 1023.95 1023.87 1023.84 1024.08 1024.21 1024.15 1024.06 1023.89 1023.66 1023.51 1023.51 1024.01 1023.80 1023.96 1023.84 1022.62 1021.67 1021.49 1021.40 1021.66 1021.80 1021.88 1021.79 1021.96 1021.96 1022.04 1022.42 1022.65 1022.69 1022.09 1021.46 1022.21 1022.78 1023.04 1023.26 1023.35 1024.05 1024.11 1023.28 1020.90 1017.32 1016.69 1016.53 1016.67 1016.72 1016.39
1023.46 1023.43 1023.47 1023.39 1023.43 1023.66 1023.84 1024.02 1024.03 1023.96 1023.86 1023.80 1023.79 1023.81 1023.95 1023.99 1022.75 1022.10 1021.72 1021.68 1021.59 1021.77 1022.06 1022.03 1022.18 1022.35 1022.53 1022.97 1023.35 1023.19 1022.33 1021.46 1021.89 1022.35 1023.08 1023.50 1023.95 1023.74 1023.53 1022.53 1019.92 1017.00 1016.71 1016.67 1017.22 1017.23 1016.68
1023.00 1022.74 1022.97 1022.99 1022.96 1022.99 1023.17 1023.30 1023.65 1023.76 1023.94 1024.25 1024.23 1023.95 1023.92 1024.06 1022.94 1022.31 1022.09 1022.02 1021.97 1022.03 1022.16 1022.20 1022.51 1022.67 1023.19 1023.43 1023.43 1022.86 1022.33 1021.38 1021.44 1021.26 1021.60 1021.93 1022.58 1022.78 1022.75 1021.72 1019.24 1016.85 1017.04 1017.12 1016.91 1016.69 1016.64
1022.27 1022.29 1022.21 1022.58 1022.58 1022.47 1022.57 1022.74 1023.02 1023.41 1023.47 1023.57 1024.22 1024.10 1024.23 1024.34 1023.31 1022.66 1022.23 1022.04 1022.15 1022.28 1022.51 1022.34 1022.42 1022.37 1022.54 1023.14 1023.09 1022.73 1022.27 1021.57 1021.23 1021.20 1020.38 1020.77 1020.02 1020.17 1019.96 1018.25 1016.93 1016.56 1016.26 1016.19 1016.36 1016.56 1016.51
Thickness
5553 5549 5542 5537 5532 5529 5527 5523 5520 5519 5517 5518 5518 5518 5519 5521 5522 5523 5528 5532 5537 5547 5558 5570 5584 5598 5609 5613 5619 5641 5654 5666 5676 5685 5686 5691 5696 5698 5689 5693 5699 5694 5692 5690 5691 5693 5694
5551 5546 5540 5535 5532 5528 5526 5526 5522 5518 5517 5516 5517 5515 5518 5519 5527 5528 5531 5533 5544 5551 5562 5573 5587 5601 5608 5609 5628 5641 5653 5665 5672 5680 5679 5684 5685 5694 5685 5682 5683 5690 5688 5683 5686 5688 5689
5551 5544 5538 5533 5531 5529 5528 5526 5522 5519 5517 5519 5517 5517 5520 5524 5527 5527 5537 5542 5551 5560 5570 5579 5592 5605 5608 5611 5630 5643 5654 5662 5670 5678 5676 5682 5685 5689 5684 5678 5684 5685 5681 5680 5679 5683 5681
5552 5546 5537 5533 5532 5531 5530 5526 5522 5520 5518 5518 5519 5520 5525 5528 5530 5534 5542 5551 5560 5568 5575 5583 5596 5607 5603 5621 5632 5644 5653 5660 5669 5677 5678 5682 5684 5679 5675 5677 5676 5674 5674 5665 5675 5677 5675
5554 5549 5542 5534 5536 5536 5532 5530 5528 5526 5525 5525 5527 5528 5532 5538 5542 5547 5554 5560 5567 5574 5582 5591 5602 5610 5604 5624 5630 5640 5651 5655 5665 5673 5675 5681 5680 5667 5670 5661 5649 5660 5655 5666 5670 5672 5668
5556 5551 5546 5540 5538 5539 5542 5537 5536 5537 5536 5539 5540 5541 5545 5550 5554 5559 5563 5567 5574 5579 5588 5598 5610 5607 5611 5616 5630 5639 5651 5658 5662 5667 5667 5670 5660 5647 5641 5639 5630 5644 5649 5658 5664 5661 5661
5561 5556 5550 5547 5543 5543 5542 5543 5545 5546 5547 5548 5551 5554 5557 5560 5564 5567 5571 5574 5576 5579 5587 5588 5595 5602 5610 5622 5634 5638 5648 5654 5662 5658 5648 5654 5629 5612 5638 5647 5650 5648 5649 5646 5655 5656 5651
5566 5562 5557 5553 5552 5550 5550 5549 5552 5556 5557 5559 5561 5562 5565 5569 5571 5572 5575 5579 5579 5588 5585 5598 5602 5605 5614 5622 5626 5633 5645 5647 5652 5640 5650 5633 5619 5633 5640 5646 5643 5644 5641 5637 5639 5647 5638
5571 5568 5564 5561 5559 5558 5558 5559 5560 5562 5565 5568 5571 5574 5577 5578 5580 5581 5579 5580 5587 5596 5593 5595 5603 5603 5610 5621 5617 5624 5635 5642 5639 5632 5631 5624 5625 5633 5635 5638 5634 5630 5631 5624 5620 5628 5631
5573 5572 5570 5567 5566 5565 5566 5568 5569 5571 5573 5576 5579 5582 5585 5586 5587 5588 5585 5590 5597 5601 5567 5584 5597 5604 5614 5618 5613 5627 5632 5636 5632 5624 5623 5620 5625 5629 5631 5627 5625 5628 5624 5621 5619 5601 5597
5577 5575 5574 5573 5571 5571 5571 5573 5576 5578 5580 5583 5586 5589 5592 5593 5593 5589 5592 5597 5602 5602 5543 5591 5599 5614 5617 5614 5617 5621 5632 5635 5626 5624 5621 5614 5617 5619 5620 5619 5624 5621 5617 5616 5612 5592 5593
5580 5579 5577 5576 5577 5577 5578 5579 5581 5583 5586 5589 5592 5595 5599 5599 5597 5596 5599 5602 5603 5572 5546 5581 5601 5606 5609 5616 5619 5624 5628 5631 5629 5623 5617 5612 5617 5615 5616 5620 5618 5618 5612 5604 5595 5577 5566
5584 5582 5582 5581 5581 5582 5583 5586 5588 5589 5591 5594 5596 5598 5601 5600 5596 5600 5602 5601 5566 5555 5586 5588 5595 5608 5610 5610 5615 5620 5620 5615 5611 5592 5574 5608 5609 5611 5614 5611 5612 5599 5574 5546 5568 5573 5577
5586 5585 5585 5586 5587 5587 5589 5590 5592 5595 5597 5598 5600 5600 5600 5600 5601 5603 5602 5591 5562 5589 5588 5596 5600 5606 5605 5607 5611 5616 5613 5601 5609 5610 5569 5577 5579 5604 5607 5605 5599 5602 5581 5546 5581 5567 5570
5586 5587 5587 5589 5590 5592 5594 5597 5598 5599 5601 5603 5604 5604 5603 5602 5603 5605 5599 5558 5565 5586 5595 5594 5597 5599 5599 5605 5607 5608 5608 5602 5603 5603 5592 5593 5594 5600 5602 5601 5599 5598 5579 5590 5565 5577 5561
5584 5586 5588 5590 5592 5594 5596 5600 5603 5606 5606 5607 5603 5602 5602 5605 5605 5602 5580 5570 5575 5587 5589 5596 5594 5600 5597 5599 5601 5602 5600 5599 5596 5599 5598 5598 5579 5596 5594 5597 5595 5591 5590 5573 5547 5583 5583
5581 5583 5585 5587 5591 5595 5598 5600 5605 5610 5612 5611 5607 5601 5605 5608 5606 5593 5562 5570 5582 5587 5588 5590 5589 5598 5598 5599 5600 5600 5596 5593 5599 5596 5597 5598 5584 5582 5588 5582 5582 5575 5577 5582 5575 5566 5573
5579 5581 5583 5585 5588 5592 5595 5600 5604 5608 5616 5613 5604 5590 5608 5609 5591 5573 5572 5587 5585 5587 5591 5591 5593 5592 5593 5595 5598 5597 5594 5592 5597 5598 5592 5589 5580 5555 5583 5588 5591 5589 5589 5580 5552 5585 5567
5575 5578 5579 5581 5583 5587 5591 5596 5600 5604 5607 5604 5596 5595 5606 5604 5573 5566 5586 5586 5586 5589 5588 5589 5590 5590 5594 5591 5590 5593 5590 5589 5593 5590 5585 5586 5571 5532 5571 5576 5582 5582 5584 5585 5575 5556 5565
5571 5573 5574 5576 5579 5581 5584 5588 5594 5599 5601 5602 5595 5581 5586 5587 5580 5585 5589 5587 5582 5586 5587 5589 5588 5589 5589 5588 5589 5586 5586 5584 5585 5584 5584 5581 5570 5568 5555 5579 5579 5576 5581 5579 5569 5530 5559
5567 5568 5570 5570 5572 5576 5577 5580 5585 5592 5599 5595 5583 5569 5570 5566 5577 5580 5587 5590 5584 5582 5584 5586 5585 5587 5586 5585 5585 5583 5586 5579 5579 5577 5576 5570 5561 5568 5567 5569 5572 5577 5580 5578 5556 5575 5564
5563 5563 5564 5565 5565 5567 5571 5571 5575 5581 5590 5580 5571 5568 5565 5568 5576 5577 5574 5580 5584 5582 5581 5580 5580 5586 5586 5582 5583 5583 5584 5580 5578 5567 5568 5564 5555 5564 5558 5570 5567 5567 5577 5577 5579 5579 5575
5560 5558 5557 5557 5559 5561 5562 5564 5567 5571 5577 5565 5562 5564 5565 5568 5569 5568 5562 5571 5572 5575 5578 5580 5579 5577 5578 5578 5575 5576 5575 5571 5573 5564 5555 5552 5543 5538 5547 5556 5558 5567 5584 5582 5576 5579 5580
5556 5555 5553 5552 5552 5554 5557 5558 5559 5561 5563 5559 5554 5553 5556 5565 5567 5566 5566 5564 5565 5567 5566 5569 5570 5568 5569 5568 5569 5570 5566 5564 5560 5559 5555 5549 5542 5531 5527 5535 5542 5591 5593 5588 5580 5582 5577
5553 5553 5551 5549 5548 5548 5550 5552 5552 5554 5555 5556 5554 5550 5550 5553 5560 5567 5567 5564 5560 5561 5559 5561 5560 5553 5555 5558 5556 5559 5558 5558 5553 5542 5542 5541 5533 5524 5523 5518 5546 5593 5580 5574 5570 5578 5580
5546 5548 5548 5548 5545 5543 5543 5545 5547 5548 5548 5548 5545 5547 5545 5546 5556 5565 5561 5562 5552 5549 5549 5553 5548 5545 5547 5541 5543 5547 5553 5561 5549 5533 5531 5532 5531 5520 5506 5516 5535 5580 5571 5567 5563 5551 5560
5540 5542 5543 5543 5543 5541 5538 5535 5536 5537 5539 5541 5540 5538 5537 5538 5550 5556 5554 5553 5554 5550 5543 5545 5540 5537 5535 5523 5522 5520 5535 5552 5546 5536 5512 5511 5503 5503 5501 5494 5523 5563 5556 5554 5541 5541 5544
5532 5537 5536 5537 5538 5538 5536 5534 5531 5530 5527 5525 5525 5529 5529 5525 5533 5544 5546 5543 5542 5539 5539 5540 5536 5528 5515 5517 5514 5522 5522 5537 5536 5534 5516 5509 5492 5485 5487 5487 5499 5544 5537 5534 5530 5531 5528
5526 5527 5530 5527 5529 5532 5531 5529 5526 5523 5523 5521 5515 5514 5513 5513 5521 5526 5529 5531 5529 5527 5523 5525 5528 5526 5518 5510 5508 5508 5515 5515 5521 5520 5534 5519 5528 5511 5517 5524 5540 5528 5533 5525 5517 5512 5514